QPF
0.06 0.04 0.02 0.02 0.02 0.03 0.04 0.04 0.03 0.02 0.01 0.01 0.02 0.01 0.01 0.01 0.02 0.02 0.01 0.01 0.01 0.00 0.00 0.01 0.01 0.00 0.00 0.01 0.02 0.03 0.07 0.09 0.07 0.05 0.05 0.06 0.06 0.05
0.07 0.06 0.05 0.03 0.03 0.03 0.04 0.05 0.04 0.03 0.02 0.01 0.01 0.01 0.01 0.01 0.01 0.01 0.01 0.01 0.00 0.00 0.00 0.00 0.00 0.00 0.00 0.00 0.01 0.01 0.02 0.03 0.04 0.03 0.03 0.03 0.05 0.06
0.07 0.07 0.07 0.05 0.04 0.03 0.03 0.04 0.04 0.04 0.03 0.02 0.01 0.01 0.00 0.00 0.00 0.00 0.00 0.00 0.00 0.00 0.00 0.00 0.00 0.00 0.00 0.00 0.00 0.01 0.01 0.01 0.02 0.03 0.04 0.05 0.04 0.04
0.06 0.06 0.07 0.07 0.05 0.04 0.03 0.02 0.02 0.02 0.02 0.01 0.01 0.00 0.00 0.00 0.00 0.00 0.00 0.00 0.00 0.00 0.00 0.00 0.00 0.00 0.00 0.00 0.00 0.00 0.01 0.01 0.02 0.02 0.03 0.06 0.09 0.08
0.06 0.05 0.05 0.05 0.06 0.06 0.05 0.03 0.02 0.02 0.02 0.01 0.01 0.01 0.00 0.00 0.00 0.00 0.00 0.00 0.00 0.00 0.00 0.00 0.00 0.00 0.00 0.00 0.00 0.00 0.00 0.01 0.01 0.02 0.02 0.03 0.05 0.08
0.04 0.04 0.04 0.03 0.03 0.03 0.04 0.04 0.03 0.03 0.02 0.02 0.01 0.01 0.01 0.00 0.00 0.00 0.00 0.00 0.00 0.00 0.00 0.00 0.00 0.00 0.00 0.00 0.00 0.00 0.00 0.00 0.00 0.01 0.02 0.03 0.04 0.05
0.03 0.04 0.04 0.04 0.03 0.03 0.03 0.03 0.03 0.02 0.02 0.02 0.01 0.01 0.01 0.00 0.00 0.00 0.00 0.00 0.00 0.00 0.00 0.00 0.00 0.00 0.00 0.00 0.00 0.00 0.00 0.00 0.00 0.00 0.01 0.02 0.03 0.04
0.03 0.03 0.03 0.04 0.03 0.03 0.03 0.03 0.03 0.02 0.02 0.02 0.02 0.01 0.01 0.00 0.00 0.00 0.00 0.00 0.00 0.00 0.00 0.00 0.00 0.00 0.00 0.00 0.00 0.00 0.00 0.00 0.00 0.00 0.01 0.01 0.02 0.03
0.03 0.03 0.03 0.04 0.04 0.03 0.03 0.02 0.02 0.02 0.02 0.02 0.01 0.01 0.01 0.00 0.00 0.00 0.00 0.00 0.00 0.00 0.00 0.00 0.00 0.00 0.00 0.00 0.00 0.00 0.00 0.00 0.00 0.00 0.01 0.01 0.01 0.02
0.04 0.03 0.03 0.03 0.04 0.04 0.04 0.03 0.03 0.02 0.02 0.01 0.01 0.01 0.01 0.01 0.00 0.00 0.00 0.00 0.00 0.00 0.00 0.00 0.00 0.00 0.00 0.00 0.00 0.00 0.00 0.00 0.00 0.00 0.01 0.02 0.02 0.02
0.04 0.04 0.04 0.03 0.04 0.04 0.03 0.03 0.03 0.03 0.02 0.02 0.02 0.02 0.02 0.01 0.01 0.01 0.00 0.00 0.00 0.00 0.00 0.00 0.00 0.00 0.00 0.00 0.00 0.00 0.00 0.00 0.01 0.01 0.01 0.03 0.04 0.04
0.04 0.04 0.05 0.05 0.05 0.05 0.04 0.04 0.04 0.03 0.03 0.03 0.02 0.02 0.02 0.01 0.01 0.00 0.01 0.01 0.01 0.00 0.00 0.00 0.00 0.00 0.00 0.00 0.00 0.00 0.00 0.01 0.01 0.01 0.01 0.02 0.03 0.05
0.03 0.04 0.04 0.05 0.05 0.05 0.05 0.05 0.05 0.04 0.03 0.03 0.03 0.02 0.02 0.02 0.01 0.01 0.01 0.01 0.01 0.01 0.00 0.00 0.01 0.01 0.01 0.00 0.00 0.00 0.01 0.01 0.01 0.01 0.01 0.02 0.03 0.04
0.03 0.03 0.04 0.04 0.04 0.04 0.04 0.05 0.05 0.05 0.04 0.03 0.03 0.03 0.03 0.03 0.02 0.02 0.01 0.01 0.01 0.01 0.00 0.01 0.01 0.01 0.01 0.01 0.00 0.00 0.01 0.02 0.02 0.01 0.01 0.02 0.03 0.04
0.03 0.03 0.04 0.04 0.04 0.04 0.04 0.04 0.04 0.03 0.03 0.03 0.03 0.03 0.03 0.03 0.02 0.02 0.01 0.01 0.01 0.00 0.00 0.01 0.01 0.01 0.01 0.01 0.01 0.01 0.01 0.02 0.02 0.02 0.02 0.02 0.03 0.04
0.03 0.03 0.04 0.04 0.04 0.04 0.03 0.03 0.03 0.03 0.03 0.02 0.02 0.02 0.02 0.02 0.02 0.02 0.01 0.01 0.01 0.01 0.00 0.01 0.01 0.01 0.01 0.01 0.01 0.01 0.01 0.02 0.02 0.02 0.02 0.02 0.03 0.04
0.03 0.03 0.03 0.03 0.04 0.03 0.03 0.03 0.03 0.03 0.03 0.02 0.02 0.01 0.01 0.01 0.01 0.01 0.01 0.01 0.01 0.01 0.00 0.00 0.01 0.01 0.01 0.01 0.01 0.01 0.01 0.01 0.02 0.02 0.02 0.03 0.02 0.02
0.03 0.03 0.03 0.02 0.02 0.02 0.02 0.03 0.02 0.02 0.02 0.02 0.02 0.02 0.01 0.01 0.01 0.01 0.01 0.01 0.01 0.01 0.01 0.01 0.01 0.02 0.02 0.01 0.01 0.01 0.01 0.01 0.01 0.02 0.02 0.03 0.02 0.02
0.03 0.03 0.02 0.02 0.02 0.02 0.02 0.02 0.02 0.02 0.02 0.02 0.02 0.02 0.01 0.01 0.01 0.01 0.01 0.01 0.01 0.01 0.01 0.01 0.02 0.03 0.03 0.02 0.01 0.01 0.01 0.01 0.01 0.02 0.02 0.02 0.02 0.02
0.03 0.02 0.02 0.02 0.02 0.02 0.01 0.01 0.01 0.01 0.01 0.01 0.01 0.01 0.01 0.01 0.01 0.01 0.01 0.01 0.01 0.02 0.01 0.01 0.01 0.02 0.03 0.02 0.02 0.02 0.02 0.02 0.02 0.02 0.02 0.01 0.01 0.02
0.03 0.03 0.02 0.02 0.02 0.02 0.02 0.01 0.01 0.01 0.01 0.01 0.01 0.01 0.01 0.02 0.02 0.01 0.01 0.02 0.02 0.02 0.02 0.01 0.01 0.02 0.03 0.03 0.03 0.03 0.02 0.02 0.02 0.02 0.02 0.02 0.02 0.02
0.02 0.02 0.02 0.02 0.02 0.02 0.02 0.02 0.02 0.02 0.02 0.02 0.02 0.02 0.02 0.02 0.02 0.02 0.02 0.02 0.02 0.02 0.02 0.02 0.02 0.02 0.03 0.03 0.03 0.03 0.03 0.02 0.03 0.03 0.03 0.02 0.02 0.02
0.01 0.01 0.02 0.02 0.02 0.02 0.02 0.03 0.02 0.02 0.02 0.02 0.02 0.02 0.02 0.03 0.03 0.03 0.03 0.03 0.03 0.03 0.03 0.03 0.02 0.02 0.02 0.03 0.03 0.03 0.02 0.02 0.02 0.02 0.02 0.02 0.02 0.02
MSLP
1022.73 1022.93 1023.09 1023.18 1023.19 1023.10 1022.91 1022.64 1022.29 1021.90 1021.48 1021.06 1020.67 1020.30 1019.98 1019.69 1019.43 1019.20 1018.98 1018.78 1018.59 1018.42 1018.26 1018.13 1018.01 1017.92 1017.85 1017.79 1017.74 1017.68 1017.61 1017.54 1017.44 1017.33 1017.21 1017.07 1016.91 1016.74
1022.55 1022.73 1022.87 1022.95 1022.95 1022.87 1022.70 1022.45 1022.14 1021.78 1021.40 1021.01 1020.63 1020.28 1019.95 1019.64 1019.35 1019.07 1018.81 1018.56 1018.32 1018.11 1017.92 1017.76 1017.63 1017.52 1017.44 1017.37 1017.31 1017.25 1017.19 1017.13 1017.05 1016.97 1016.87 1016.77 1016.65 1016.52
1022.37 1022.51 1022.63 1022.69 1022.69 1022.61 1022.46 1022.24 1021.96 1021.64 1021.30 1020.95 1020.60 1020.26 1019.93 1019.61 1019.29 1018.97 1018.66 1018.36 1018.08 1017.81 1017.58 1017.37 1017.20 1017.06 1016.95 1016.86 1016.79 1016.73 1016.67 1016.62 1016.57 1016.53 1016.49 1016.44 1016.37 1016.30
1022.20 1022.31 1022.40 1022.45 1022.43 1022.36 1022.21 1022.01 1021.76 1021.47 1021.17 1020.85 1020.53 1020.21 1019.89 1019.55 1019.21 1018.87 1018.52 1018.17 1017.83 1017.52 1017.23 1016.98 1016.77 1016.59 1016.44 1016.32 1016.23 1016.15 1016.10 1016.07 1016.05 1016.06 1016.07 1016.08 1016.09 1016.09
1022.05 1022.14 1022.20 1022.22 1022.19 1022.09 1021.94 1021.74 1021.50 1021.23 1020.95 1020.66 1020.36 1020.05 1019.74 1019.41 1019.06 1018.70 1018.32 1017.94 1017.57 1017.22 1016.89 1016.60 1016.34 1016.12 1015.93 1015.78 1015.67 1015.58 1015.53 1015.51 1015.53 1015.57 1015.63 1015.71 1015.79 1015.85
1021.92 1021.97 1022.00 1021.99 1021.93 1021.81 1021.63 1021.41 1021.16 1020.89 1020.61 1020.33 1020.04 1019.74 1019.44 1019.12 1018.77 1018.41 1018.03 1017.64 1017.26 1016.89 1016.54 1016.22 1015.93 1015.68 1015.46 1015.29 1015.14 1015.04 1014.98 1014.97 1015.00 1015.07 1015.18 1015.30 1015.44 1015.56
1021.77 1021.79 1021.79 1021.73 1021.63 1021.47 1021.25 1020.99 1020.71 1020.41 1020.12 1019.83 1019.54 1019.25 1018.96 1018.65 1018.32 1017.97 1017.61 1017.24 1016.87 1016.50 1016.16 1015.83 1015.53 1015.27 1015.03 1014.83 1014.67 1014.55 1014.48 1014.46 1014.49 1014.57 1014.69 1014.85 1015.01 1015.17
1021.57 1021.55 1021.51 1021.41 1021.25 1021.04 1020.77 1020.46 1020.13 1019.80 1019.48 1019.17 1018.87 1018.59 1018.30 1018.01 1017.71 1017.39 1017.06 1016.72 1016.38 1016.04 1015.72 1015.41 1015.12 1014.86 1014.62 1014.41 1014.23 1014.10 1014.01 1013.97 1013.98 1014.05 1014.17 1014.33 1014.50 1014.68
1021.29 1021.23 1021.14 1020.99 1020.78 1020.51 1020.19 1019.83 1019.46 1019.09 1018.73 1018.40 1018.09 1017.80 1017.53 1017.25 1016.98 1016.69 1016.40 1016.10 1015.79 1015.49 1015.20 1014.93 1014.66 1014.42 1014.19 1013.98 1013.80 1013.66 1013.55 1013.49 1013.49 1013.53 1013.63 1013.77 1013.94 1014.12
1020.91 1020.82 1020.68 1020.48 1020.22 1019.90 1019.53 1019.13 1018.72 1018.32 1017.94 1017.59 1017.27 1016.98 1016.70 1016.44 1016.18 1015.92 1015.65 1015.38 1015.11 1014.85 1014.59 1014.35 1014.12 1013.90 1013.70 1013.51 1013.34 1013.20 1013.09 1013.02 1013.00 1013.02 1013.09 1013.21 1013.36 1013.53
1020.46 1020.32 1020.14 1019.90 1019.60 1019.25 1018.85 1018.42 1017.99 1017.57 1017.18 1016.81 1016.49 1016.19 1015.91 1015.65 1015.38 1015.13 1014.86 1014.61 1014.35 1014.11 1013.87 1013.66 1013.46 1013.27 1013.11 1012.95 1012.82 1012.70 1012.61 1012.55 1012.52 1012.54 1012.60 1012.70 1012.84 1013.00
1019.95 1019.77 1019.55 1019.28 1018.95 1018.58 1018.17 1017.74 1017.31 1016.89 1016.49 1016.13 1015.79 1015.48 1015.19 1014.90 1014.62 1014.34 1014.06 1013.78 1013.51 1013.27 1013.04 1012.84 1012.67 1012.52 1012.39 1012.29 1012.20 1012.14 1012.09 1012.07 1012.08 1012.12 1012.18 1012.29 1012.42 1012.58
1019.41 1019.20 1018.94 1018.65 1018.32 1017.94 1017.53 1017.12 1016.69 1016.29 1015.90 1015.53 1015.18 1014.85 1014.53 1014.21 1013.88 1013.55 1013.22 1012.90 1012.60 1012.33 1012.09 1011.89 1011.74 1011.63 1011.56 1011.52 1011.51 1011.52 1011.55 1011.59 1011.66 1011.75 1011.85 1011.98 1012.13 1012.29
1018.87 1018.62 1018.35 1018.04 1017.70 1017.33 1016.93 1016.53 1016.13 1015.73 1015.35 1014.98 1014.62 1014.26 1013.89 1013.52 1013.13 1012.73 1012.34 1011.96 1011.60 1011.29 1011.03 1010.84 1010.70 1010.63 1010.62 1010.66 1010.74 1010.84 1010.97 1011.12 1011.27 1011.43 1011.59 1011.76 1011.94 1012.11
1018.33 1018.05 1017.76 1017.44 1017.09 1016.73 1016.35 1015.96 1015.57 1015.18 1014.80 1014.41 1014.02 1013.62 1013.20 1012.76 1012.30 1011.84 1011.37 1010.92 1010.52 1010.17 1009.89 1009.69 1009.59 1009.56 1009.62 1009.75 1009.93 1010.14 1010.38 1010.63 1010.89 1011.13 1011.37 1011.58 1011.79 1011.97
1017.77 1017.47 1017.16 1016.83 1016.48 1016.12 1015.74 1015.35 1014.96 1014.56 1014.16 1013.75 1013.32 1012.87 1012.39 1011.89 1011.36 1010.82 1010.29 1009.79 1009.35 1008.98 1008.69 1008.52 1008.45 1008.48 1008.61 1008.83 1009.11 1009.44 1009.79 1010.15 1010.50 1010.82 1011.12 1011.38 1011.61 1011.80
1017.19 1016.87 1016.55 1016.20 1015.84 1015.46 1015.07 1014.67 1014.26 1013.84 1013.40 1012.95 1012.47 1011.96 1011.42 1010.86 1010.28 1009.69 1009.12 1008.60 1008.14 1007.77 1007.51 1007.37 1007.35 1007.46 1007.67 1007.98 1008.36 1008.78 1009.22 1009.67 1010.09 1010.47 1010.81 1011.10 1011.33 1011.51
1016.56 1016.24 1015.90 1015.54 1015.16 1014.76 1014.35 1013.92 1013.47 1013.01 1012.52 1012.02 1011.48 1010.92 1010.33 1009.72 1009.10 1008.49 1007.91 1007.39 1006.96 1006.63 1006.42 1006.34 1006.40 1006.58 1006.88 1007.26 1007.72 1008.21 1008.72 1009.22 1009.68 1010.09 1010.44 1010.72 1010.93 1011.09
1015.90 1015.57 1015.22 1014.85 1014.46 1014.04 1013.60 1013.13 1012.64 1012.13 1011.59 1011.03 1010.44 1009.82 1009.19 1008.55 1007.92 1007.32 1006.76 1006.28 1005.90 1005.64 1005.51 1005.52 1005.66 1005.92 1006.29 1006.75 1007.26 1007.79 1008.33 1008.84 1009.30 1009.70 1010.03 1010.28 1010.45 1010.56
1015.20 1014.88 1014.54 1014.17 1013.77 1013.34 1012.87 1012.38 1011.85 1011.29 1010.70 1010.09 1009.45 1008.80 1008.15 1007.50 1006.88 1006.31 1005.80 1005.39 1005.09 1004.92 1004.88 1004.97 1005.20 1005.54 1005.97 1006.47 1007.01 1007.56 1008.09 1008.58 1009.01 1009.37 1009.64 1009.83 1009.95 1010.00
1014.50 1014.20 1013.88 1013.53 1013.14 1012.71 1012.24 1011.73 1011.17 1010.59 1009.97 1009.32 1008.66 1007.99 1007.33 1006.69 1006.10 1005.58 1005.14 1004.81 1004.60 1004.52 1004.58 1004.77 1005.07 1005.48 1005.96 1006.48 1007.02 1007.56 1008.05 1008.49 1008.86 1009.14 1009.35 1009.47 1009.52 1009.52
1013.84 1013.57 1013.28 1012.97 1012.61 1012.20 1011.74 1011.24 1010.69 1010.09 1009.46 1008.81 1008.14 1007.47 1006.83 1006.23 1005.68 1005.22 1004.86 1004.61 1004.49 1004.51 1004.65 1004.92 1005.28 1005.73 1006.23 1006.76 1007.28 1007.77 1008.21 1008.58 1008.87 1009.08 1009.20 1009.25 1009.24 1009.18
1013.23 1013.01 1012.77 1012.51 1012.19 1011.83 1011.41 1010.94 1010.41 1009.83 1009.22 1008.59 1007.94 1007.31 1006.70 1006.15 1005.66 1005.27 1004.98 1004.81 1004.78 1004.87 1005.08 1005.39 1005.80 1006.26 1006.76 1007.26 1007.75 1008.18 1008.56 1008.85 1009.06 1009.19 1009.23 1009.21 1009.14 1009.03
Thickness
5573 5573 5573 5573 5572 5572 5571 5570 5568 5566 5566 5565 5565 5566 5566 5566 5565 5566 5566 5566 5566 5566 5566 5566 5565 5565 5565 5564 5564 5564 5564 5564 5563 5563 5562 5562 5561 5560
5563 5563 5563 5563 5562 5562 5561 5560 5560 5559 5557 5557 5555 5555 5555 5555 5555 5555 5556 5556 5556 5556 5556 5556 5555 5555 5554 5554 5554 5554 5554 5554 5554 5553 5553 5552 5552 5551
5553 5553 5553 5553 5552 5551 5551 5550 5549 5549 5548 5547 5545 5545 5545 5545 5545 5544 5545 5545 5545 5545 5545 5545 5545 5544 5544 5544 5544 5544 5544 5543 5543 5543 5543 5543 5542 5542
5543 5542 5542 5543 5542 5541 5540 5539 5538 5538 5537 5536 5535 5533 5533 5533 5533 5533 5533 5533 5533 5534 5534 5533 5533 5533 5533 5532 5532 5532 5532 5532 5532 5532 5532 5532 5532 5531
5532 5532 5532 5531 5531 5530 5530 5529 5528 5527 5525 5524 5523 5521 5521 5521 5520 5520 5520 5520 5521 5522 5522 5521 5521 5521 5521 5520 5520 5520 5520 5521 5521 5521 5521 5521 5521 5521
5520 5521 5521 5521 5521 5520 5519 5517 5516 5514 5512 5511 5510 5509 5508 5507 5506 5506 5507 5507 5508 5509 5509 5508 5508 5508 5508 5508 5508 5508 5508 5509 5509 5509 5510 5510 5510 5509
5508 5509 5509 5509 5510 5509 5508 5506 5504 5502 5500 5498 5497 5496 5496 5494 5494 5494 5494 5494 5495 5495 5495 5496 5495 5496 5495 5495 5496 5496 5497 5497 5497 5498 5498 5499 5499 5498
5496 5497 5497 5496 5496 5496 5497 5496 5495 5492 5489 5487 5486 5485 5485 5484 5483 5481 5480 5480 5482 5482 5481 5482 5482 5482 5483 5483 5484 5484 5485 5485 5485 5486 5486 5487 5487 5487
5484 5484 5484 5484 5483 5483 5483 5483 5483 5482 5481 5478 5476 5476 5474 5474 5471 5469 5467 5466 5468 5468 5467 5470 5470 5470 5471 5472 5472 5473 5473 5473 5473 5473 5474 5475 5475 5475
5471 5471 5471 5471 5470 5469 5469 5469 5469 5468 5468 5467 5466 5465 5464 5462 5460 5458 5456 5454 5454 5454 5453 5455 5457 5457 5459 5460 5460 5460 5460 5460 5460 5461 5462 5462 5463 5464
5458 5458 5458 5458 5458 5457 5455 5455 5455 5454 5454 5453 5453 5453 5451 5449 5446 5443 5440 5439 5441 5441 5439 5440 5442 5443 5446 5448 5448 5447 5447 5447 5447 5448 5449 5450 5451 5452
5443 5444 5445 5445 5445 5444 5442 5441 5441 5441 5440 5439 5438 5437 5436 5435 5433 5431 5429 5426 5426 5428 5428 5426 5427 5427 5432 5436 5435 5434 5434 5434 5434 5435 5436 5437 5438 5439
5428 5430 5430 5431 5432 5431 5430 5429 5429 5428 5426 5424 5423 5422 5421 5420 5419 5418 5417 5415 5415 5416 5416 5414 5414 5413 5415 5420 5422 5421 5420 5421 5422 5423 5424 5425 5426 5427
5415 5415 5416 5417 5418 5418 5417 5416 5416 5414 5411 5409 5408 5408 5407 5407 5406 5406 5405 5405 5405 5405 5405 5402 5402 5401 5401 5404 5408 5409 5408 5408 5409 5410 5412 5413 5415 5416
5400 5401 5402 5402 5403 5403 5403 5402 5401 5399 5398 5396 5396 5396 5396 5395 5394 5393 5393 5392 5393 5393 5393 5392 5391 5391 5390 5391 5394 5395 5395 5397 5397 5398 5400 5401 5403 5404
5386 5387 5388 5388 5389 5389 5389 5388 5387 5386 5386 5385 5385 5384 5383 5382 5381 5381 5380 5380 5381 5382 5381 5380 5380 5380 5380 5380 5381 5383 5383 5383 5386 5386 5388 5390 5392 5393
5373 5373 5373 5374 5374 5374 5374 5374 5374 5373 5373 5372 5372 5372 5371 5370 5369 5369 5368 5368 5369 5371 5371 5369 5368 5368 5369 5370 5371 5373 5373 5374 5375 5375 5377 5379 5383 5383
5361 5361 5362 5362 5362 5362 5362 5362 5361 5361 5361 5360 5360 5360 5359 5359 5358 5357 5357 5357 5358 5359 5359 5358 5356 5357 5358 5361 5362 5363 5363 5364 5365 5366 5366 5368 5373 5375
5350 5350 5351 5350 5350 5350 5350 5350 5350 5350 5349 5349 5349 5349 5348 5348 5348 5348 5347 5347 5348 5349 5349 5348 5346 5346 5350 5355 5356 5355 5354 5355 5356 5357 5358 5359 5362 5366
5338 5338 5339 5338 5338 5339 5339 5339 5340 5339 5338 5339 5339 5338 5338 5338 5339 5339 5338 5338 5338 5339 5339 5339 5338 5338 5340 5343 5345 5346 5346 5346 5347 5348 5350 5351 5353 5357
5327 5327 5328 5328 5328 5329 5329 5329 5330 5330 5329 5329 5329 5329 5329 5329 5330 5330 5330 5331 5330 5330 5332 5333 5332 5331 5330 5330 5333 5338 5339 5339 5339 5339 5341 5342 5345 5348
5317 5317 5318 5318 5319 5319 5320 5320 5320 5321 5321 5321 5321 5321 5321 5321 5322 5322 5323 5324 5324 5324 5324 5324 5323 5322 5321 5323 5327 5329 5331 5332 5332 5333 5334 5336 5336 5339
5308 5308 5309 5310 5311 5311 5311 5312 5312 5313 5313 5314 5314 5314 5314 5314 5315 5316 5317 5317 5317 5317 5316 5315 5315 5315 5315 5317 5318 5320 5321 5323 5324 5327 5329 5331 5332 5334